Location: Albany
(35.0000°S, 118.0000°E)
Time: 20:46:30
(UTC-04:00)

Amateur Radio Satellites - All Passes

Search period start: 24 April 2014 20:16
Search period end: 25 April 2014 20:16
Location: Albany, 35.0000°S, 118.0000°E

Satellite Date Start Highest point End Downlink Frequencies (MHz)
Time Altitude Azimuth
HO-68 24 Apr 20:31:47 20:39:00 87° 106° (ESE) 20:46:17 435.675 MHz FM
ISS 24 Apr 20:43:43 20:46:23 22° 310° (NW) 20:49:01 145.800 FM
Oscar 11 24 Apr 21:15:36 21:20:00 87° 281° (W) 21:24:27 145.825 FM, Beacon 2401.500 USB
FUNcube-1 24 Apr 21:22:53 21:27:04 35° 108° (ESE) 21:31:19 145.950 - 145.970 MHz USB
PCSat 24 Apr 21:44:13 21:48:41 27° 73° (ENE) 21:53:10 145.825 MHz
SO-50 24 Apr 21:49:47 21:53:34 24° 129° (SE) 21:57:17 436.795 FM
HO-68 24 Apr 22:24:05 22:27:25 14° 271° (W) 22:30:46 435.675 MHz FM
Sapphire 24 Apr 22:41:58 22:47:23 87° 65° (ENE) 22:52:51 437.095 MHz 1200 baud AX-25 AFSK
FUNcube-1 24 Apr 23:00:10 23:03:31 20° 274° (W) 23:06:56 145.950 - 145.970 MHz USB
PCSat 24 Apr 23:26:56 23:31:53 36° 237° (WSW) 23:36:53 145.825 MHz
SO-50 24 Apr 23:29:59 23:34:12 34° 293° (WNW) 23:38:18 436.795 FM
UOSAT-12 24 Apr 23:40:33 23:43:24 17° 131° (SE) 23:46:14 437.025 FM, 437.400 FM
Sapphire 25 Apr 00:29:00 00:31:31 13° 227° (SW) 00:34:03 437.095 MHz 1200 baud AX-25 AFSK
OPAL 25 Apr 00:36:15 00:37:01 10° 120° (ESE) 00:37:47 ?
Oscar 19 25 Apr 00:38:50 00:41:55 16° 87° (E) 00:44:58 437.125 CW, 437.150 USB
Oscar 16 25 Apr 00:47:30 00:51:24 21° 85° (E) 00:55:16 437.025 USB, Beacon 2401.1428
KITSAT 1 25 Apr 00:50:51 00:58:48 68° 67° (ENE) 01:06:49 435.175 FM
UOSAT-12 25 Apr 01:19:31 01:23:47 48° 295° (WNW) 01:28:01 437.025 FM, 437.400 FM
AO-Echo 25 Apr 01:31:50 01:36:09 24° 85° (E) 01:40:26 ?
Uribyol 2 25 Apr 01:33:02 01:37:40 31° 83° (E) 01:42:14 436.500 FM
JAS-1B 25 Apr 01:55:54 01:58:51 12° 97° (E) 02:01:42 435.800 - 435.900 CW/SSB
OPAL 25 Apr 02:10:00 02:15:09 86° 285° (WNW) 02:20:17 ?
AO-27 25 Apr 02:15:52 02:21:12 81° 77° (ENE) 02:26:26 436.795 MHz FM
Oscar 19 25 Apr 02:16:30 02:21:30 51° 253° (WSW) 02:26:28 437.125 CW, 437.150 USB
ITAMSAT 1 25 Apr 02:24:59 02:30:19 84° 256° (WSW) 02:35:32 435.822 SSB
Oscar 16 25 Apr 02:26:04 02:30:50 38° 251° (WSW) 02:35:34 437.025 USB, Beacon 2401.1428
Gurwin Techsat 1B 25 Apr 02:42:09 02:47:16 43° 81° (E) 02:52:19 435.225 FM
KITSAT 1 25 Apr 02:48:15 02:54:48 27° 228° (SW) 03:01:25 435.175 FM
AO-Echo 25 Apr 03:10:02 03:14:55 37° 251° (WSW) 03:19:47 ?
Uribyol 2 25 Apr 03:12:35 03:17:00 28° 248° (WSW) 03:21:22 436.500 FM
TMSAT-1 25 Apr 03:26:15 03:31:40 83° 77° (ENE) 03:36:59 436.925 FM
Uosat F 25 Apr 03:34:15 03:38:49 32° 82° (E) 03:43:19 435.120 FM
RS-15 25 Apr 03:39:51 03:48:50 27° 79° (ENE) 03:58:04 29.354 - 29.394 USB, Beacon 29.352 USB
JAS-1B 25 Apr 03:41:00 03:50:58 68° 79° (E) 03:59:55 435.800 - 435.900 CW/SSB
AO-27 25 Apr 03:58:25 03:59:56 11° 241° (WSW) 04:01:28 436.795 MHz FM
Gurwin Techsat 1B 25 Apr 04:22:56 04:26:53 21° 246° (WSW) 04:30:47 435.225 FM
MaSat-1 25 Apr 04:32:13 04:36:36 26° 124° (SE) 04:40:26 437.345 MHz
AO-7 25 Apr 04:35:02 04:43:25 69° 75° (ENE) 04:51:40 29.400 - 29.500 MHz
STRAND 1 25 Apr 04:59:35 05:03:13 20° 114° (ESE) 05:06:52 ?
TMSAT-1 25 Apr 05:09:18 05:10:48 11° 242° (WSW) 05:12:17 436.925 FM
Uosat F 25 Apr 05:13:16 05:17:25 25° 248° (WSW) 05:21:31 435.120 FM
PANSAT 25 Apr 05:23:59 05:27:08 24° 12° (NNE) 05:30:17 not established
JAS-1B 25 Apr 05:32:25 05:40:30 30° 241° (WSW) 05:48:09 435.800 - 435.900 CW/SSB
Hamsat 25 Apr 05:35:51 05:39:14 23° 85° (E) 05:42:34 145.90 MHz
JAS-2 25 Apr 05:39:46 05:43:13 14° 94° (E) 05:46:28 435.800 - 435.900 CW/SSB, 435.910 FM
RS-15 25 Apr 05:48:15 05:59:59 76° 239° (WSW) 06:12:19 29.354 - 29.394 USB, Beacon 29.352 USB
MaSat-1 25 Apr 06:10:43 06:15:02 29° 283° (WNW) 06:18:45 437.345 MHz
AO-7 25 Apr 06:29:06 06:35:26 25° 238° (WSW) 06:41:43 29.400 - 29.500 MHz
PCSat 25 Apr 06:36:30 06:38:53 13° 133° (SE) 06:41:15 145.825 MHz
STRAND 1 25 Apr 06:37:07 06:42:01 44° 279° (W) 06:47:00 ?
PANSAT 25 Apr 07:03:29 07:06:56 31° 359° (N) 07:10:24 not established
Hamsat 25 Apr 07:11:41 07:15:07 24° 250° (WSW) 07:18:31 145.90 MHz
JAS-2 25 Apr 07:21:45 07:29:13 84° 255° (WSW) 07:35:46 435.800 - 435.900 CW/SSB, 435.910 FM
Sapphire 25 Apr 07:33:36 07:38:34 35° 123° (ESE) 07:43:29 437.095 MHz 1200 baud AX-25 AFSK
SO-67 25 Apr 07:36:38 07:40:09 58° 256° (WSW) 07:43:37 435.3500 MHz FM
Oscar 10/S400 25 Apr 07:44:00 09:40:37 60° 334° (NNW) 10:00:35 145.825 - 145.975 CW/USB, Beacon 145.810 USB
Saudisat 1A 25 Apr 08:02:35 08:06:16 27° 68° (ENE) 08:09:59 436.775 MHz
HO-68 25 Apr 08:04:55 08:09:47 19° 87° (E) 08:14:37 435.675 MHz FM
RS-15 25 Apr 08:05:51 08:14:59 24° 213° (SSW) 08:24:22 29.354 - 29.394 USB, Beacon 29.352 USB
PCSat 25 Apr 08:17:34 08:23:03 89° 295° (WNW) 08:28:27 145.825 MHz
PANSAT 25 Apr 08:43:45 08:46:44 21° 346° (NNW) 08:49:43 not established
KITSAT 1 25 Apr 08:48:46 08:54:31 20° 137° (SE) 09:00:14 435.175 FM
Oscar 11 25 Apr 09:07:31 09:10:54 22° 85° (E) 09:14:15 145.825 FM, Beacon 2401.500 USB
JAS-2 25 Apr 09:09:22 09:12:54 14° 236° (WSW) 09:16:17 435.800 - 435.900 CW/SSB, 435.910 FM
Sapphire 25 Apr 09:17:16 09:21:49 28° 287° (WNW) 09:26:20 437.095 MHz 1200 baud AX-25 AFSK
Saudisat 1A 25 Apr 09:42:08 09:45:47 26° 233° (SW) 09:49:29 436.775 MHz
HO-68 25 Apr 09:50:48 09:57:57 67° 251° (WSW) 10:05:01 435.675 MHz FM
RS-15 25 Apr 10:28:50 10:34:24 14° 176° (S) 10:39:58 29.354 - 29.394 USB, Beacon 29.352 USB
KITSAT 1 25 Apr 10:42:49 10:51:00 90° 115° (ESE) 10:59:07 435.175 FM
Oscar 11 25 Apr 10:43:21 10:47:02 27° 251° (WSW) 10:50:42 145.825 FM, Beacon 2401.500 USB
FUNcube-1 25 Apr 10:51:43 10:56:14 72° 256° (WSW) 11:00:34 145.950 - 145.970 MHz USB
HO-68 25 Apr 11:42:53 11:44:17 11° 234° (SW) 11:45:41 435.675 MHz FM
ISS 25 Apr 11:46:24 11:49:43 56° 46° (NE) 11:53:04 145.800 FM
Oscar 19 25 Apr 11:52:46 11:56:08 18° 115° (ESE) 11:59:32 437.125 CW, 437.150 USB
Oscar 16 25 Apr 12:01:26 12:05:28 23° 113° (ESE) 12:09:32 437.025 USB, Beacon 2401.1428
SO-50 25 Apr 12:02:43 12:05:38 16° 72° (ENE) 12:08:33 436.795 FM
ITAMSAT 1 25 Apr 12:04:20 12:06:05 12° 118° (ESE) 12:07:51 435.822 SSB
KITSAT 1 25 Apr 12:41:06 12:45:16 15° 281° (W) 12:49:26 435.175 FM
AO-Echo 25 Apr 12:42:15 12:45:50 21° 113° (ESE) 12:49:31 ?
RS-15 25 Apr 12:42:50 12:53:09 30° 141° (SE) 13:03:10 29.354 - 29.394 USB, Beacon 29.352 USB
Uribyol 2 25 Apr 12:47:41 12:52:22 34° 110° (ESE) 12:57:06 436.500 FM
TMSAT-1 25 Apr 13:09:11 13:09:52 10° 119° (ESE) 13:10:34 436.925 FM
ISS 25 Apr 13:24:23 13:26:41 17° 210° (SSW) 13:28:58 145.800 FM
Oscar 19 25 Apr 13:30:02 13:35:02 49° 280° (W) 13:40:06 437.125 CW, 437.150 USB
AO-27 25 Apr 13:30:37 13:35:52 87° 104° (ESE) 13:41:11 436.795 MHz FM
ITAMSAT 1 25 Apr 13:39:36 13:44:50 79° 283° (WNW) 13:50:09 435.822 SSB
Oscar 16 25 Apr 13:39:48 13:44:34 37° 278° (W) 13:49:23 437.025 USB, Beacon 2401.1428
SO-50 25 Apr 13:41:04 13:45:46 50° 237° (WSW) 13:50:31 436.795 FM
AO-7 25 Apr 13:43:24 13:46:58 13° 129° (SE) 13:50:32 29.400 - 29.500 MHz
Gurwin Techsat 1B 25 Apr 13:59:55 14:05:02 49° 108° (ESE) 14:10:13 435.225 FM
AO-Echo 25 Apr 14:19:52 14:24:18 37° 278° (W) 14:28:55 ?
JAS-1B 25 Apr 14:21:21 14:28:22 42° 115° (ESE) 14:36:37 435.800 - 435.900 CW/SSB
OPAL 25 Apr 14:23:41 14:28:10 32° 80° (E) 14:32:36 ?
Uribyol 2 25 Apr 14:27:34 14:31:49 25° 276° (W) 14:36:09 436.500 FM
TMSAT-1 25 Apr 14:43:37 14:48:57 89° 283° (WNW) 14:54:22 436.925 FM
Uosat F 25 Apr 14:44:25 14:48:51 32° 111° (ESE) 14:53:20 435.120 FM
RS-15 25 Apr 14:54:58 15:07:18 87° 297° (WNW) 15:19:06 29.354 - 29.394 USB, Beacon 29.352 USB
UOSAT-12 25 Apr 15:27:17 15:31:51 76° 240° (WSW) 15:36:22 437.025 FM, 437.400 FM
AO-7 25 Apr 15:29:55 15:38:12 70° 111° (ESE) 15:46:35 29.400 - 29.500 MHz
Gurwin Techsat 1B 25 Apr 15:41:45 15:45:14 18° 273° (W) 15:48:44 435.225 FM
OPAL 25 Apr 16:02:50 16:06:52 25° 246° (WSW) 16:10:52 ?
JAS-1B 25 Apr 16:11:59 16:18:49 39° 274° (W) 16:26:56 435.800 - 435.900 CW/SSB
Uosat F 25 Apr 16:23:30 16:27:36 25° 276° (W) 16:31:46 435.120 FM
Hamsat 25 Apr 16:27:54 16:29:39 12° 114° (ESE) 16:31:24 145.90 MHz
Saudisat 1A 25 Apr 16:33:58 16:35:21 11° 135° (SE) 16:36:44 436.775 MHz
RS-15 25 Apr 17:10:36 17:17:53 19° 278° (W) 17:25:03 29.354 - 29.394 USB, Beacon 29.352 USB
AO-7 25 Apr 17:25:23 17:31:30 22° 275° (W) 17:37:42 29.400 - 29.500 MHz
JAS-2 25 Apr 17:28:46 17:35:14 35° 114° (ESE) 17:42:06 435.800 - 435.900 CW/SSB, 435.910 FM
Hamsat 25 Apr 18:00:54 18:05:09 52° 280° (W) 18:09:25 145.90 MHz
SO-67 25 Apr 18:07:26 18:10:23 25° 107° (ESE) 18:13:21 435.3500 MHz FM
Saudisat 1A 25 Apr 18:11:02 18:15:31 82° 298° (WNW) 18:19:58 436.775 MHz
ISS 25 Apr 18:18:24 18:20:53 19° 149° (SSE) 18:23:20 145.800 FM
MaSat-1 25 Apr 18:28:29 18:33:00 30° 77° (ENE) 18:37:57 437.345 MHz
HO-68 25 Apr 18:34:20 18:35:49 11° 126° (SE) 18:37:19 435.675 MHz FM
STRAND 1 25 Apr 18:50:52 18:56:07 83° 77° (ENE) 19:01:17 ?
JAS-2 25 Apr 19:13:04 19:19:55 45° 277° (W) 19:27:22 435.800 - 435.900 CW/SSB, 435.910 FM
SO-67 25 Apr 19:41:32 19:43:31 14° 274° (W) 19:45:31 435.3500 MHz FM
ISS 25 Apr 19:54:32 19:57:45 43° 313° (NW) 20:00:54 145.800 FM
Oscar 11 25 Apr 20:01:06 20:02:57 13° 114° (ESE) 20:04:49 145.825 FM, Beacon 2401.500 USB
